Location: �terpigny
(49.8910°N, 2.9249°E)
Time: 04:12:23
(UTC+00:00)

Cosmos 614 Rocket - Pass Details

Date: 07 June 2022
Orbit: 732 x 764 km, 74.1° (Epoch: 05 July)

Event Time Altitude Azimuth Distance (km) Brightness Sun altitude
Rises 21:38:41 0° 343° (NNW) 3,226 9.0 -11.9°
Reaches altitude 10° 21:41:51 10° 2° (N) 2,302 7.4 -12.2°
Maximum altitude 21:45:21 18° 45° (NE) 1,824 6.2 -12.4°
Drops below altitude 10° 21:48:50 10° 87° (E) 2,302 6.2 -12.7°
Enters shadow 21:50:53 - 101° (E) 2,876 6.6 -12.8°
